Terminal Aerodrome Forecast
Issued by NWS Charleston, WV

Current Version | Previous Version | Graphics & Text | Print | Product List | Glossary On
Versions: 1 2 3 4 5 6 7 8 9 10 11 12 13 14 15 16 17 18 19 20 21 22 23 24 25 26 27
000
FTUS41 KRLX 042338
TAFCRW
TAF
KCRW 042338Z 0500/0524 14004KT P6SM -SHRA OVC030
     FM050300 18004KT 6SM -SHRA OVC009
     FM050900 24004KT P6SM OVC007
     FM051400 VRB03KT P6SM BKN014
     FM051800 VRB02KT P6SM BKN045=

USA.gov is the U.S. government's official web portal to all federal, state and local government web resources and services.